When you browse on this site, cookies collect data to enhance your experience and personalize the content and advertising you see.
Visit our Privacy Policy to learn more. By continuing to use the site, you agree to this use of cookies and data.
  • In Lithuania
  • List of Countries
  • For 7 days
  • Water Temperature
  • Weather Map
  • Weather Widgets
  • user-avatar
    Login

    Hourly Weather Albany

    Today, 17 August, Saturday

    Time Temperature Precipitation Wind Pressure Humidity
    00:00 +8°C° 0.7 mm 6 mps 755 mmHg 87%
    01:00 +8°C° 0.7 mm 7 mps 755 mmHg 87%
    02:00 +7°C° 0 mm 9 mps 755 mmHg 85%
    03:00 +6°C° 0.5 mm 9 mps 756 mmHg 85%
    04:00 +6°C° 0.5 mm 9 mps 756 mmHg 84%
    05:00 +6°C° 0.5 mm 10 mps 757 mmHg 84%
    06:00 +6°C° 0.2 mm 9 mps 758 mmHg 82%
    07:00 +6°C° 0.2 mm 9 mps 759 mmHg 80%
    08:00 +7°C° 0 mm 9 mps 760 mmHg 77%
    09:00 +7°C° 0.3 mm 9 mps 761 mmHg 76%
    10:00 +8°C° 0.3 mm 9 mps 761 mmHg 74%
    11:00 +8°C° 0.3 mm 10 mps 761 mmHg 72%
    12:00 +8°C° 0.5 mm 10 mps 761 mmHg 73%
    13:00 +9°C° 0.5 mm 10 mps 762 mmHg 73%
    14:00 +9°C° 0 mm 11 mps 762 mmHg 71%
    15:00 +9°C° 0.4 mm 10 mps 762 mmHg 73%
    16:00 +9°C° 0.4 mm 10 mps 763 mmHg 75%
    17:00 +8°C° 0.4 mm 9 mps 763 mmHg 77%
    18:00 +8°C° 0.1 mm 9 mps 764 mmHg 77%
    19:00 +9°C° 0.1 mm 8 mps 764 mmHg 76%
    20:00 +9°C° 0.1 mm 8 mps 765 mmHg 76%
    21:00 +9°C° 0.1 mm 8 mps 765 mmHg 77%
    22:00 +9°C° 0.1 mm 7 mps 766 mmHg 78%
    23:00 +9°C° 0.1 mm 7 mps 766 mmHg 79%

    Tomorrow, 18 August, Sunday

    Time Temperature Precipitation Wind Pressure Humidity
    00:00 +9°C° 0.1 mm 6 mps 766 mmHg 79%
    01:00 +9°C° 0.1 mm 5 mps 766 mmHg 80%
    02:00 +9°C° 0.1 mm 5 mps 766 mmHg 80%
    03:00 +9°C° 0.1 mm 5 mps 767 mmHg 80%
    04:00 +9°C° 0.1 mm 5 mps 767 mmHg 81%
    05:00 +10°C° 0.1 mm 4 mps 767 mmHg 81%
    06:00 +11°C° 0.1 mm 4 mps 768 mmHg 83%
    07:00 +11°C° 0.1 mm 4 mps 768 mmHg 85%
    08:00 +11°C° 0.1 mm 3 mps 768 mmHg 86%
    09:00 +12°C° 0.1 mm 4 mps 769 mmHg 82%
    10:00 +13°C° 0.1 mm 4 mps 769 mmHg 78%
    11:00 +14°C° 0.1 mm 5 mps 769 mmHg 73%
    12:00 +14°C° 0.1 mm 4 mps 769 mmHg 72%
    13:00 +14°C° 0.1 mm 4 mps 769 mmHg 72%
    14:00 +14°C° 0.1 mm 4 mps 768 mmHg 71%
    15:00 +14°C° 0.1 mm 4 mps 769 mmHg 74%
    16:00 +13°C° 0.1 mm 4 mps 769 mmHg 76%
    17:00 +13°C° 0.1 mm 3 mps 770 mmHg 79%
    18:00 +12°C° 0.1 mm 3 mps 770 mmHg 81%
    19:00 +12°C° 0.1 mm 3 mps 770 mmHg 83%
    20:00 +11°C° 0.1 mm 3 mps 771 mmHg 86%
    21:00 +11°C° 0.1 mm 3 mps 771 mmHg 87%
    22:00 +10°C° 0.1 mm 3 mps 771 mmHg 89%
    23:00 +10°C° 0.1 mm 4 mps 771 mmHg 90%

    Day after tomorrow, 19 August, Monday

    Time Temperature Precipitation Wind Pressure Humidity
    00:00 +8°C° 0.1 mm 4 mps 771 mmHg 91%
    01:00 +8°C° 0.1 mm 4 mps 771 mmHg 91%
    02:00 +8°C° 0.1 mm 4 mps 771 mmHg 91%
    03:00 +8°C° 0.1 mm 4 mps 771 mmHg 91%
    04:00 +8°C° 0.1 mm 4 mps 771 mmHg 91%
    05:00 +9°C° 0.1 mm 3 mps 771 mmHg 91%
    06:00 +10°C° 0 mm 4 mps 771 mmHg 90%
    07:00 +10°C° 0 mm 4 mps 771 mmHg 88%
    08:00 +11°C° 0 mm 4 mps 772 mmHg 87%
    09:00 +12°C° 0 mm 4 mps 772 mmHg 79%
    10:00 +14°C° 0 mm 4 mps 772 mmHg 72%
    11:00 +15°C° 0 mm 5 mps 772 mmHg 64%
    12:00 +15°C° 0 mm 5 mps 771 mmHg 64%
    13:00 +17°C° 0 mm 4 mps 771 mmHg 63%
    14:00 +17°C° 0 mm 4 mps 771 mmHg 63%
    15:00 +15°C° 0 mm 4 mps 771 mmHg 66%
    16:00 +15°C° 0 mm 4 mps 771 mmHg 69%
    17:00 +14°C° 0 mm 4 mps 771 mmHg 73%
    18:00 +13°C° 0 mm 4 mps 771 mmHg 76%
    19:00 +12°C° 0 mm 4 mps 772 mmHg 79%
    20:00 +11°C° 0 mm 4 mps 772 mmHg 81%
    21:00 +11°C° 0 mm 4 mps 772 mmHg 82%
    22:00 +10°C° 0 mm 4 mps 772 mmHg 82%
    23:00 +10°C° 0 mm 4 mps 772 mmHg 83%

    20 August, Tuesday

    Time Temperature Precipitation Wind Pressure Humidity
    00:00 +8°C° 0 mm 4 mps 772 mmHg 85%
    01:00 +8°C° 0 mm 4 mps 772 mmHg 87%
    02:00 +7°C° 0 mm 4 mps 772 mmHg 90%
    03:00 +7°C° 0 mm 4 mps 772 mmHg 90%
    04:00 +8°C° 0 mm 3 mps 771 mmHg 91%
    05:00 +7°C° 0 mm 3 mps 771 mmHg 92%
    06:00 +8°C° 0 mm 3 mps 772 mmHg 90%
    07:00 +9°C° 0 mm 3 mps 772 mmHg 88%
    08:00 +9°C° 0 mm 3 mps 772 mmHg 86%
    09:00 +11°C° 0 mm 3 mps 772 mmHg 79%
    10:00 +13°C° 0 mm 3 mps 772 mmHg 73%
    11:00 +16°C° 0 mm 3 mps 772 mmHg 66%
    12:00 +17°C° 0 mm 2 mps 772 mmHg 64%
    13:00 +18°C° 0 mm 2 mps 771 mmHg 62%
    14:00 +18°C° 0 mm 2 mps 771 mmHg 60%
    15:00 +17°C° 0 mm 2 mps 771 mmHg 65%
    16:00 +16°C° 0 mm 2 mps 771 mmHg 71%
    17:00 +15°C° 0 mm 2 mps 771 mmHg 76%
    18:00 +14°C° 0 mm 1 mps 771 mmHg 80%
    19:00 +13°C° 0 mm 1 mps 771 mmHg 84%
    20:00 +11°C° 0 mm 1 mps 771 mmHg 88%
    21:00 +11°C° 0 mm 1 mps 771 mmHg 89%
    22:00 +10°C° 0 mm 2 mps 771 mmHg 90%
    23:00 +9°C° 0 mm 2 mps 771 mmHg 92%

    21 August, Wednesday

    Time Temperature Precipitation Wind Pressure Humidity
    00:00 +9°C° 0 mm 2 mps 770 mmHg 92%
    01:00 +9°C° 0 mm 2 mps 770 mmHg 92%
    02:00 +8°C° 0 mm 2 mps 769 mmHg 92%
    03:00 +8°C° 0 mm 3 mps 769 mmHg 92%
    04:00 +8°C° 0 mm 3 mps 769 mmHg 91%
    05:00 +8°C° 0 mm 3 mps 768 mmHg 91%
    06:00 +9°C° 0 mm 3 mps 768 mmHg 89%
    07:00 +9°C° 0 mm 3 mps 768 mmHg 87%
    08:00 +10°C° 0 mm 3 mps 768 mmHg 85%
    09:00 +12°C° 0 mm 4 mps 768 mmHg 76%
    10:00 +15°C° 0 mm 4 mps 767 mmHg 67%
    11:00 +17°C° 0 mm 5 mps 767 mmHg 57%
    12:00 +19°C° 0 mm 5 mps 766 mmHg 56%
    13:00 +19°C° 0 mm 5 mps 765 mmHg 55%
    14:00 +20°C° 0 mm 5 mps 764 mmHg 54%
    15:00 +19°C° 0 mm 5 mps 764 mmHg 60%
    16:00 +18°C° 0 mm 4 mps 764 mmHg 65%
    17:00 +17°C° 0 mm 3 mps 763 mmHg 71%
    18:00 +15°C° 0 mm 4 mps 764 mmHg 73%
    19:00 +13°C° 0 mm 4 mps 764 mmHg 76%
    20:00 +12°C° 0 mm 4 mps 764 mmHg 79%
    21:00 +12°C° 0 mm 5 mps 763 mmHg 76%
    22:00 +12°C° 0 mm 5 mps 762 mmHg 73%
    23:00 +12°C° 0 mm 5 mps 762 mmHg 71%

    22 August, Thursday

    Time Temperature Precipitation Wind Pressure Humidity
    00:00 +11°C° 0 mm 6 mps 761 mmHg 65%
    01:00 +13°C° 0 mm 6 mps 761 mmHg 60%
    02:00 +12°C° 0 mm 7 mps 760 mmHg 55%
    03:00 +12°C° 0 mm 7 mps 760 mmHg 53%
    04:00 +12°C° 0 mm 7 mps 759 mmHg 50%
    05:00 +11°C° 0 mm 7 mps 759 mmHg 48%
    06:00 +11°C° 0 mm 8 mps 759 mmHg 49%
    07:00 +11°C° 0 mm 8 mps 759 mmHg 49%
    08:00 +11°C° 0 mm 8 mps 759 mmHg 50%
    09:00 +13°C° 0 mm 8 mps 758 mmHg 50%
    10:00 +16°C° 0 mm 8 mps 758 mmHg 49%
    11:00 +17°C° 0 mm 8 mps 757 mmHg 49%
    12:00 +18°C° 0.1 mm 8 mps 757 mmHg 53%
    13:00 +18°C° 0.1 mm 8 mps 756 mmHg 57%
    14:00 +20°C° 0.1 mm 8 mps 756 mmHg 61%
    15:00 +16°C° 2.1 mm 8 mps 756 mmHg 72%
    16:00 +13°C° 2.1 mm 8 mps 756 mmHg 83%
    17:00 +11°C° 2.1 mm 8 mps 757 mmHg 93%
    18:00 +10°C° 0.6 mm 8 mps 757 mmHg 93%
    19:00 +10°C° 0.6 mm 7 mps 758 mmHg 92%
    20:00 +9°C° 0.6 mm 7 mps 759 mmHg 91%
    21:00 +9°C° 0.2 mm 7 mps 759 mmHg 90%
    22:00 +9°C° 0.2 mm 7 mps 759 mmHg 88%
    23:00 +9°C° 0.2 mm 7 mps 760 mmHg 87%
    Show more